Perry, FL

10:31 AM EDT on August 31, 2016 (GMT -0400)
Perry

Weather History for K40J - June, 2013

Change the Weather History Date:

Monday, June 3, 2013

  Actual Average (KCTY) Record (KCTY)
Temperature  
Mean Temperature 80 °F 79 °F  
Max Temperature 91 °F 90 °F 99 °F (2002)
Min Temperature 69 °F 67 °F 61 °F (2011)
Degree Days  
Heating Degree Days 0 0  
Month to date heating degree days 0  
Since 1 June heating degree days 0  
Since 1 July heating degree days 1306  
Cooling Degree Days 14 14  
Month to date cooling degree days 41  
Year to date cooling degree days 520  
Since 1 June cooling degree days 41  
Growing Degree Days 30 (Base 50)    
Moisture  
Dew Point 70 °F    
Average Humidity 75    
Maximum Humidity 100    
Minimum Humidity 50    
Precipitation  
Precipitation 0.02 in 0.11 in 0.56 in (1999)
Month to date precipitation 0.31  
Year to date precipitation 17.48  
Sea Level Pressure  
Sea Level Pressure 29.93 in    
Wind  
Wind Speed 4 mph (SSW)    
Max Wind Speed 15 mph    
Max Gust Speed 20 mph    
Visibility 9 miles    
Events Fog    
T = Trace of Precipitation, MM = Missing Value Source: NWS Daily Summary

Daily Weather History Graph

Daily Weather History Graph

Search for Another Location

Airport or City:

Trip Planner

Search our weather history database for the weather conditions in past years. The results will help you decide how hot, cold, wet, or windy it might be!

Date:

Astronomy

Jun. 03, 2013 Rise Set
Actual Time 6:33 AM EDT 8:32 PM EDT
Civil Twilight 6:05 AM EDT 8:59 PM EDT
Nautical Twilight 5:33 AM EDT 9:32 PM EDT
Astronomical Twilight 4:57 AM EDT 10:07 PM EDT
Moon 3:12 AM EDT (6/3) 4:17 PM EDT (6/3)
Length of Visible Light 14h 53m
Length of Day
13h 59m
Waning Crescent, 22% of the Moon is Illuminated
Jun 3
Waning Crescent
Jun 8
New
Jun 16
First Quarter
Jun 23
Full
Jun 30
Last Quarter

Hourly Weather History & Observations

Time (EDT) Temp. Heat Index Dew Point Humidity Pressure Visibility Wind Dir Wind Speed Gust Speed Precip Events Conditions
12:15 AM 73.4 °F - 71.6 °F 94% 29.95 in 10.0 mi SSE 4.6 mph - N/A   Mostly Cloudy
12:35 AM 73.4 °F - 69.8 °F 88% 29.95 in 10.0 mi Calm Calm - N/A   Scattered Clouds
12:53 AM 75.0 °F - 71.1 °F 87% 29.94 in - Calm Calm - N/A   Unknown
12:55 AM 73.4 °F - 69.8 °F 88% 29.95 in 10.0 mi Calm Calm - N/A   Clear
1:15 AM 71.6 °F - 69.8 °F 94% 29.95 in 10.0 mi Calm Calm - N/A   Clear
1:35 AM 71.6 °F - 69.8 °F 94% 29.95 in 10.0 mi Calm Calm - N/A   Clear
1:53 AM 73.0 °F - 70.0 °F 90% 29.93 in - Calm Calm - N/A   Unknown
1:55 AM 71.6 °F - 69.8 °F 94% 29.94 in 5.0 mi Calm Calm - N/A   Clear
2:15 AM 71.6 °F - 69.8 °F 94% 29.94 in 10.0 mi Calm Calm - N/A   Clear
2:35 AM 69.8 °F - 68.0 °F 94% 29.93 in 7.0 mi Calm Calm - N/A   Clear
2:53 AM 71.1 °F - 68.0 °F 90% 29.91 in - Calm Calm - N/A   Unknown
2:55 AM 69.8 °F - 68.0 °F 94% 29.92 in 7.0 mi Calm Calm - N/A   Clear
3:15 AM 69.8 °F - 69.8 °F 100% 29.92 in 5.0 mi Calm Calm - N/A   Clear
3:35 AM 69.8 °F - 69.8 °F 100% 29.91 in 1.0 mi Calm Calm - N/A   Mostly Cloudy
3:53 AM 71.1 °F - 68.0 °F 90% 29.89 in - Calm Calm - N/A   Unknown
3:55 AM 69.8 °F - 68.0 °F 94% 29.91 in 10.0 mi Calm Calm - N/A   Scattered Clouds
4:15 AM 71.6 °F - 69.8 °F 94% 29.91 in 7.0 mi ESE 3.5 mph - N/A   Scattered Clouds
4:35 AM 69.8 °F - 69.8 °F 100% 29.91 in 7.0 mi Calm Calm - N/A   Clear
4:53 AM 71.1 °F - 69.1 °F 93% 29.89 in - Calm Calm - N/A   Unknown
4:55 AM 69.8 °F - 68.0 °F 94% 29.91 in 0.5 mi Calm Calm - N/A Fog Fog
5:15 AM 69.8 °F - 68.0 °F 94% 29.91 in 4.0 mi East 4.6 mph - N/A   Clear
5:35 AM 69.8 °F - 68.0 °F 94% 29.92 in 4.0 mi Calm Calm - N/A   Clear
5:53 AM 71.1 °F - 69.1 °F 93% 29.91 in - ESE 4.6 mph - 0.01 in   Unknown
5:55 AM 69.8 °F - 68.0 °F 94% 29.92 in 7.0 mi ESE 3.5 mph - N/A   Clear
6:15 AM 69.8 °F - 68.0 °F 94% 29.92 in 7.0 mi ESE 3.5 mph - N/A   Clear
6:35 AM 69.8 °F - 68.0 °F 94% 29.93 in 10.0 mi ESE 3.5 mph - N/A   Scattered Clouds
6:53 AM 72.0 °F - 69.1 °F 91% 29.91 in - ESE 4.6 mph - N/A   Unknown
6:55 AM 69.8 °F - 69.8 °F 100% 29.92 in 7.0 mi ESE 3.5 mph - N/A   Mostly Cloudy
7:15 AM 69.8 °F - 69.8 °F 100% 29.93 in 7.0 mi Calm Calm - N/A   Mostly Cloudy
7:35 AM 71.6 °F - 69.8 °F 94% 29.93 in 10.0 mi SSE 3.5 mph - N/A   Scattered Clouds
7:53 AM 75.0 °F - 72.0 °F 90% 29.92 in - SSE 4.6 mph - N/A   Unknown
7:55 AM 73.4 °F - 71.6 °F 94% 29.93 in 10.0 mi SSE 4.6 mph - N/A   Scattered Clouds
8:15 AM 73.4 °F - 71.6 °F 94% 29.94 in 10.0 mi Calm Calm - N/A   Clear
8:35 AM 77.0 °F - 73.4 °F 89% 29.95 in 10.0 mi SSW 4.6 mph - N/A   Clear
8:53 AM 81.0 °F 85.2 °F 72.0 °F 74% 29.93 in - SSW 5.8 mph - 0.01 in   Unknown
8:55 AM 78.8 °F - 71.6 °F 78% 29.95 in 10.0 mi SSW 4.6 mph - N/A   Clear
9:15 AM 80.6 °F 84.6 °F 71.6 °F 74% 29.94 in 10.0 mi South 6.9 mph - N/A   Clear
9:35 AM 80.6 °F 84.6 °F 71.6 °F 74% 29.94 in 10.0 mi SSW 5.8 mph - N/A   Scattered Clouds
9:53 AM 84.0 °F 88.4 °F 70.0 °F 63% 29.93 in - WSW 5.8 mph - N/A   Unknown
9:55 AM 80.6 °F 83.9 °F 69.8 °F 70% 29.95 in 10.0 mi WSW 5.8 mph - N/A   Scattered Clouds
10:15 AM 82.4 °F 86.3 °F 69.8 °F 66% 29.95 in 10.0 mi SSW 6.9 mph - N/A   Scattered Clouds
10:35 AM 84.2 °F 87.3 °F 68.0 °F 58% 29.95 in 10.0 mi South 9.2 mph - N/A   Clear
10:53 AM 87.1 °F 91.3 °F 69.1 °F 55% 29.94 in - SW 11.5 mph - N/A   Unknown
10:55 AM 84.2 °F 87.3 °F 68.0 °F 58% 29.95 in 10.0 mi SW 10.4 mph 16.1 mph N/A   Clear
11:15 AM 82.4 °F 85.4 °F 68.0 °F 62% 29.96 in 10.0 mi SW 10.4 mph - N/A   Scattered Clouds
11:35 AM 84.2 °F 87.3 °F 68.0 °F 58% 29.96 in 10.0 mi WSW 8.1 mph - N/A   Scattered Clouds
11:53 AM 87.1 °F 91.3 °F 69.1 °F 55% 29.94 in - WSW 9.2 mph - N/A   Unknown
11:55 AM 86.0 °F 89.4 °F 68.0 °F 55% 29.95 in 10.0 mi SW 8.1 mph - N/A   Scattered Clouds
12:15 PM 86.0 °F 89.4 °F 68.0 °F 55% 29.95 in 10.0 mi WSW 8.1 mph - N/A   Mostly Cloudy
12:35 PM 87.8 °F 91.4 °F 68.0 °F 52% 29.95 in 10.0 mi SSW 6.9 mph - N/A   Mostly Cloudy
12:53 PM 89.1 °F 93.7 °F 69.1 °F 52% 29.94 in - SW 11.5 mph 16.1 mph N/A   Unknown
12:55 PM 86.0 °F 89.4 °F 68.0 °F 55% 29.95 in 10.0 mi WSW 8.1 mph - N/A   Scattered Clouds
1:15 PM 86.0 °F 89.4 °F 68.0 °F 55% 29.95 in 10.0 mi SW 10.4 mph 16.1 mph N/A   Scattered Clouds
1:35 PM 87.8 °F 91.4 °F 68.0 °F 52% 29.94 in 10.0 mi SSW 9.2 mph - N/A   Scattered Clouds
1:53 PM 89.1 °F 94.1 °F 70.0 °F 53% 29.92 in - SW 11.5 mph - N/A   Unknown
1:55 PM 87.8 °F 91.4 °F 68.0 °F 52% 29.93 in 10.0 mi SW 10.4 mph - N/A   Scattered Clouds
2:15 PM 87.8 °F 91.4 °F 68.0 °F 52% 29.92 in 10.0 mi SW 10.4 mph - N/A   Clear
2:35 PM 87.8 °F 91.4 °F 68.0 °F 52% 29.92 in 10.0 mi South 6.9 mph 17.3 mph N/A   Scattered Clouds
2:53 PM 89.1 °F 93.7 °F 69.1 °F 52% 29.90 in - WSW 12.7 mph 18.4 mph N/A   Unknown
2:55 PM 87.8 °F 91.4 °F 68.0 °F 52% 29.92 in 10.0 mi WSW 10.4 mph - N/A   Scattered Clouds
3:15 PM 87.8 °F 91.4 °F 68.0 °F 52% 29.91 in 10.0 mi SSW 10.4 mph 16.1 mph N/A   Scattered Clouds
3:35 PM 87.8 °F 91.4 °F 68.0 °F 52% 29.91 in 10.0 mi SSW 9.2 mph 17.3 mph N/A   Clear
3:53 PM 90.0 °F 94.5 °F 69.1 °F 50% 29.88 in - SSW 15.0 mph - N/A   Unknown
3:55 PM 87.8 °F 91.4 °F 68.0 °F 52% 29.90 in 10.0 mi SSW 13.8 mph 18.4 mph N/A   Clear
4:15 PM 87.8 °F 91.4 °F 68.0 °F 52% 29.90 in 10.0 mi SSW 9.2 mph 18.4 mph N/A   Clear
4:35 PM 87.8 °F 91.4 °F 68.0 °F 52% 29.88 in 10.0 mi SW 15.0 mph - N/A   Scattered Clouds
4:53 PM 90.0 °F 94.5 °F 69.1 °F 50% 29.85 in - SSW 12.7 mph 19.6 mph N/A   Unknown
4:55 PM 87.8 °F 91.4 °F 68.0 °F 52% 29.86 in 10.0 mi South 12.7 mph 17.3 mph N/A   Clear
5:15 PM 87.8 °F 91.4 °F 68.0 °F 52% 29.87 in 10.0 mi SSW 12.7 mph - N/A   Clear
5:35 PM 84.2 °F 88.4 °F 69.8 °F 62% 29.88 in 10.0 mi SSW 9.2 mph - N/A   Clear
5:53 PM 87.1 °F 92.0 °F 70.0 °F 57% 29.88 in - SSW 10.4 mph - N/A   Unknown
5:55 PM 84.2 °F 88.4 °F 69.8 °F 62% 29.89 in 10.0 mi SW 8.1 mph - N/A   Clear
6:15 PM 86.0 °F 90.4 °F 69.8 °F 58% 29.90 in 10.0 mi SW 10.4 mph - N/A   Clear
6:35 PM 82.4 °F 86.3 °F 69.8 °F 66% 29.90 in 10.0 mi South 10.4 mph - N/A   Clear
6:53 PM 84.0 °F 89.0 °F 71.1 °F 65% 29.89 in - South 9.2 mph - N/A   Unknown
6:55 PM 82.4 °F 86.3 °F 69.8 °F 66% 29.90 in 10.0 mi SSW 8.1 mph - N/A   Clear
7:15 PM 80.6 °F 83.9 °F 69.8 °F 70% 29.90 in 10.0 mi SSW 6.9 mph - N/A   Clear
7:35 PM 80.6 °F 84.6 °F 71.6 °F 74% 29.91 in 10.0 mi SW 9.2 mph - N/A   Clear
7:53 PM 82.9 °F 88.0 °F 72.0 °F 69% 29.92 in - SW 9.2 mph - N/A   Unknown
7:55 PM 80.6 °F 84.6 °F 71.6 °F 74% 29.93 in 10.0 mi SW 6.9 mph - N/A   Clear
8:15 PM 80.6 °F 84.6 °F 71.6 °F 74% 29.94 in 10.0 mi South 8.1 mph - N/A   Clear
8:35 PM 78.8 °F - 71.6 °F 78% 29.93 in 10.0 mi South 8.1 mph - N/A   Clear
8:53 PM 80.1 °F 83.8 °F 72.0 °F 76% 29.93 in - South 4.6 mph - N/A   Unknown
8:55 PM 78.8 °F - 71.6 °F 78% 29.94 in 10.0 mi South 3.5 mph - N/A   Clear
9:15 PM 77.0 °F - 71.6 °F 83% 29.95 in 10.0 mi Calm Calm - N/A   Clear
9:35 PM 77.0 °F - 71.6 °F 83% 29.95 in 10.0 mi South 3.5 mph - N/A   Scattered Clouds
9:53 PM 79.0 °F - 72.0 °F 79% 29.94 in - South 3.5 mph - N/A   Unknown
9:55 PM 77.0 °F - 71.6 °F 83% 29.96 in 10.0 mi Calm Calm - N/A   Mostly Cloudy
10:15 PM 77.0 °F - 71.6 °F 83% 29.96 in 10.0 mi South 3.5 mph - N/A   Scattered Clouds
10:35 PM 77.0 °F - 71.6 °F 83% 29.97 in 10.0 mi SE 3.5 mph - N/A   Scattered Clouds
10:53 PM 78.1 °F - 72.0 °F 81% 29.96 in - SSE 6.9 mph - N/A   Unknown
10:55 PM 75.2 °F - 71.6 °F 89% 29.98 in 10.0 mi SSE 5.8 mph - N/A   Mostly Cloudy
11:15 PM 77.0 °F - 71.6 °F 83% 29.98 in 10.0 mi SSE 4.6 mph - N/A   Mostly Cloudy
11:35 PM 75.2 °F - 71.6 °F 89% 29.98 in 10.0 mi SSE 4.6 mph - N/A   Clear
11:53 PM 75.9 °F - 71.1 °F 85% 29.96 in - SSE 5.8 mph - N/A   Unknown
11:55 PM 73.4 °F - 71.6 °F 94% 29.97 in 10.0 mi SSE 4.6 mph - N/A   Clear